sat.trackr.live / text

‹ back to catalog

STARLINK-37073

NORAD 68151 · 2026-049K

PAYLOAD ACTIVE UNKNOWN

§ Identity

Operator
Country
US
Launch date
2026-03-13
Launch site
AFWTR
Launch vehicle
Mass (kg)
RCS (m²)

Purposes: comms

External: N2YO · Heavens-Above · Gunter

§ Orbital elements

Epoch: 2026-09-19T07:57:36.606816Z

Period
93.91 min
Inclination
97.2852°
Eccentricity
0.0001094
Mean motion
15.33451342 rev/d
Perigee alt
464.8 km
Apogee alt
466.3 km
Semi-major
6,843.7 km
B*
5.1886e-4
RAAN
282.3284°
Arg perigee
101.6833°
Mean anomaly
258.4532°
Rev number
2,932

§ Raw data

STARLINK-370731 68151U 26049K   26262.33167369  .00016716  00000+0  51886-3 0  99992 68151  97.2852 282.3284 0001094 101.6833 258.4532 15.33451342 29327

JSON: /api/v1/satellites/68151 · /tle

For live sub-satellite position, see the globe view (requires WebGL).

§ Visibility from observer

Set your observer location to see the next 7 days of passes ≥ 10°. The values pass through the URL so the page stays shareable.

No JS? Fill the form by hand. The geolocation button needs JavaScript.